[[{"header":{"parameterUnit":"m.s-1","parameterCategory":2,"la1":30.2991,"la2":30.254,"lo1":-89.0895,"lo2":-89.0444,"dy":0.0017,"dx":0.0017,"nx":28,"ny":28,"refTime":"2025-04-03T21:00:00:Z","depth":"0","parameterNumber":2,"parameterNumberName":"U-component_of_CURRENTS"},"data":[0,0,0,0,0,0,0,0,0,0,0,0,0,0,0,0,0,0,0,0,0,0,0,0,0,0,0,0,0,0,0,0,0,0,0,0,0,0,0,0,0,0,0,0,0,0,0,0,0,0,0,0,0,0,0,0,0,0,-0.1918,-0.1918,0,-0.1908,-0.1908,-0.1908,-0.19,-0.19,-0.19,-0.19,-0.1847,-0.1846,-0.1844,0,0,0,0,0,0,0,0,0,0,0,0,0,-0.1914,-0.1914,-0.1918,-0.1918,-0.1918,-0.1909,-0.1908,-0.1908,-0.19,-0.19,-0.19,-0.19,-0.1848,-0.1846,-0.1844,0,0,0,0,0,0,0,0,0,0,0,0,0,-0.1909,-0.1914,-0.1917,-0.1914,-0.1913,-0.1909,-0.1908,-0.1908,-0.19,-0.19,-0.19,-0.19,-0.1848,-0.1846,-0.1844,-0.1828,0,0,-0.1837,-0.1836,0,0,0,0,0,0,0,0,-0.191,-0.1909,-0.1914,-0.1914,-0.1914,-0.1907,-0.1888,-0.188,-0.19,-0.1903,-0.19,-0.19,-0.1864,-0.1861,-0.1857,-0.1826,-0.1824,-0.1837,-0.1836,-0.1835,-0.1834,0,0,0,0,0,0,0,-0.191,-0.191,-0.1912,-0.1914,-0.1914,-0.1908,-0.1907,-0.1886,-0.1881,-0.1903,-0.1903,-0.1904,-0.1863,-0.1859,-0.1855,-0.1823,-0.1837,-0.1835,-0.1834,-0.1833,-0.182,-0.1821,0,0,0,0,0,0,-0.1915,-0.191,-0.1912,-0.1912,-0.1914,-0.1908,-0.1907,-0.1907,-0.1882,-0.1879,-0.1904,-0.1904,-0.1863,-0.1858,-0.1853,-0.1888,-0.1835,-0.1833,-0.1831,-0.1819,-0.182,-0.1822,0,0,0,0,0,0,-0.1915,-0.1915,-0.1913,-0.1912,-0.1912,-0.1908,-0.1908,-0.1907,-0.1904,-0.1884,-0.188,-0.1903,-0.1863,-0.1857,-0.1848,-0.1884,-0.1832,-0.183,-0.1818,-0.182,-0.1821,-0.1922,0,0,0,0,0,0,-0.1915,-0.1915,-0.1913,-0.1913,-0.1912,-0.192,-0.1908,-0.1907,-0.1906,-0.1906,-0.1881,-0.1877,-0.1862,-0.1852,-0.1846,-0.188,-0.1828,-0.1817,-0.1819,-0.1821,-0.1917,-0.1926,-0.1934,0,0,0,0,0,-0.1915,-0.1912,-0.1913,-0.1914,-0.1911,-0.1921,-0.192,-0.1917,-0.1906,-0.1912,-0.1898,-0.1877,-0.186,-0.185,-0.1844,-0.1878,-0.1816,-0.1818,-0.182,-0.1913,-0.1924,-0.1934,0,0,0,0,0,0,-0.1906,-0.1911,-0.1912,-0.191,-0.1921,-0.1921,-0.1918,-0.1917,-0.191,-0.1903,-0.1883,-0.1878,-0.1887,-0.186,-0.1851,-0.1878,-0.1837,-0.1838,-0.191,-0.192,-0.1929,-0.1951,-0.1826,0,0,0,0,0,-0.1905,-0.1902,-0.1915,-0.1912,-0.1917,-0.1917,-0.1918,-0.192,-0.1916,-0.1912,-0.19,-0.1887,-0.189,-0.1887,-0.1877,-0.1883,-0.1864,-0.1901,-0.191,-0.1917,-0.1931,-0.1952,-0.1965,-0.1829,-0.1829,-0.1829,0,0,-0.1899,-0.1902,-0.1899,-0.191,-0.1911,-0.1938,-0.1917,-0.1922,-0.1952,-0.1906,-0.1928,-0.1911,-0.1897,-0.1917,-0.1918,-0.1899,-0.194,-0.192,-0.1927,-0.1936,-0.1956,-0.197,-0.1982,-0.183,-0.183,-0.183,0,0,-0.1895,-0.1891,-0.1894,-0.1914,-0.1927,-0.1939,-0.1944,-0.1952,-0.1962,-0.1976,-0.1965,-0.1975,-0.1956,-0.1977,-0.198,-0.2025,-0.1984,-0.2011,-0.2077,-0.2099,-0.211,-0.2121,-0.2092,-0.2099,-0.2018,-0.2018,-0.2018,0,-0.189,-0.1903,-0.1898,-0.1922,-0.1948,-0.1946,-0.198,-0.1994,-0.2002,-0.2022,-0.1993,-0.2013,-0.1997,-0.2054,-0.2073,-0.205,-0.2029,-0.2043,-0.2112,-0.2122,-0.2131,-0.2099,-0.2105,-0.2023,-0.2023,-0.2022,-0.2022,0,-0.1897,-0.1922,-0.1927,-0.1966,-0.1992,-0.2016,-0.2051,-0.2073,-0.2077,-0.2096,-0.2135,-0.2121,-0.2134,-0.2138,-0.2117,-0.2182,-0.2135,-0.2121,-0.2092,-0.2152,-0.2112,-0.2117,-0.2031,-0.2029,-0.2027,-0.2026,0,0,-0.1852,-0.1921,-0.1924,-0.1968,-0.2023,-0.2046,-0.2107,-0.2166,-0.2205,-0.2216,-0.2267,-0.2288,-0.2271,-0.2273,-0.2257,-0.2281,-0.2317,-0.2229,-0.2228,-0.2209,-0.2325,-0.2254,-0.2251,-0.2315,-0.2317,-0.2319,-0.2264,0,-0.1865,-0.1925,-0.1959,-0.2037,-0.2081,-0.2127,-0.2188,-0.2242,-0.2269,-0.2314,-0.2331,-0.2356,-0.2327,-0.2324,-0.2354,-0.2322,-0.2338,-0.233,-0.2261,-0.2259,-0.2198,-0.2259,-0.2192,-0.2135,-0.2268,-0.2269,-0.227,0,-0.186,-0.1912,-0.1983,-0.2096,-0.2117,-0.2162,-0.2259,-0.2312,-0.2386,-0.2405,-0.2446,-0.244,-0.248,-0.2436,-0.2441,-0.2432,-0.2391,-0.2366,-0.2363,-0.227,-0.2199,-0.2101,-0.2139,-0.2136,-0.2277,-0.2276,-0.2276,0,-0.1829,-0.1931,-0.199,-0.2027,-0.2144,-0.2187,-0.2246,-0.2331,-0.2379,-0.2452,-0.2471,-0.2522,-0.2513,-0.2513,-0.2445,-0.2445,-0.2425,-0.2417,-0.2319,-0.231,-0.2228,-0.2209,-0.2267,-0.2435,-0.2435,-0.2436,-0.2436,0,-0.1833,-0.1882,-0.1977,-0.2014,-0.209,-0.2175,-0.225,-0.2315,-0.24,-0.2448,-0.2499,-0.252,-0.2531,-0.2511,-0.247,-0.2393,-0.244,-0.2343,-0.231,-0.2255,-0.2241,-0.2211,-0.222,-0.2433,-0.2434,-0.2434,-0.2435,0,-0.1787,-0.1851,-0.1924,-0.204,-0.2074,-0.2121,-0.2236,-0.2286,-0.2371,-0.243,-0.2449,-0.2509,-0.2483,-0.2467,-0.2437,-0.2395,-0.2311,-0.2306,-0.2213,-0.2172,-0.2095,-0.2111,-0.2101,-0.204,-0.2213,-0.2211,-0.221,0,-0.177,-0.1798,-0.1908,-0.1939,-0.1986,-0.2068,-0.212,-0.2245,-0.2297,-0.2406,-0.2421,-0.2435,-0.2412,-0.2344,-0.2289,-0.2213,-0.2219,-0.2113,-0.2129,-0.2098,-0.2093,-0.2098,-0.2049,-0.204,-0.2037,-0.2035,-0.2033,0,-0.1727,-0.175,-0.1802,-0.1868,-0.1921,-0.1995,-0.2079,-0.2119,-0.225,-0.2291,-0.2327,-0.232,-0.228,-0.2192,-0.211,-0.2057,-0.208,-0.2063,-0.2078,-0.2011,-0.1976,-0.1897,-0.2036,-0.2013,-0.2015,-0.2017,-0.2018,-0.2019,-0.1663,-0.1677,-0.1726,-0.1781,-0.1841,-0.189,-0.1904,-0.1994,-0.2044,-0.2086,-0.2171,-0.2139,-0.2132,-0.2013,-0.196,-0.1882,-0.1909,-0.1857,-0.1886,-0.1901,-0.1837,-0.1908,-0.1826,-0.1827,-0.1827,-0.1828,-0.1829,0,-0.1577,-0.1597,-0.1639,-0.1691,-0.1706,-0.1779,-0.1847,-0.1829,-0.1825,-0.1904,-0.1916,-0.1941,-0.1867,-0.1867,-0.1812,-0.1743,-0.17,-0.1713,-0.1733,-0.1695,-0.1796,-0.1784,-0.1633,-0.1633,-0.1633,-0.1633,-0.1633,-0.1633,-0.1529,-0.1523,-0.1549,-0.1533,-0.1563,-0.1535,-0.154,-0.1524,-0.1553,-0.1543,-0.1591,-0.1663,-0.1709,-0.1876,-0.1802,-0.1718,-0.1681,-0.1627,-0.1633,-0.1745,-0.1762,-0.1778,-0.1771,-0.162,-0.162,-0.1482,-0.1482,-0.1481]},{"header":{"parameterUnit":"m.s-1","parameterCategory":2,"la1":30.2991,"la2":30.254,"lo1":-89.0895,"lo2":-89.0444,"dy":0.0017,"dx":0.0017,"nx":28,"ny":28,"refTime":"2025-04-03T21:00:00:Z","depth":"0","parameterNumber":3,"parameterNumberName":"V-component_of_CURRENTS"},"data":[0,0,0,0,0,0,0,0,0,0,0,0,0,0,0,0,0,0,0,0,0,0,0,0,0,0,0,0,0,0,0,0,0,0,0,0,0,0,0,0,0,0,0,0,0,0,0,0,0,0,0,0,0,0,0,0,0,0,-0.0056,-0.0055,0,0.0019,0.002,0.0021,0.0067,0.0067,0.0067,0.0068,0.0162,0.0164,0.0166,0,0,0,0,0,0,0,0,0,0,0,0,0,-0.0136,-0.0135,-0.0056,-0.0055,-0.0054,0.0019,0.002,0.0021,0.0067,0.0067,0.0067,0.0068,0.0161,0.0164,0.0166,0,0,0,0,0,0,0,0,0,0,0,0,0,-0.0085,-0.0134,-0.0056,-0.0023,-0.0019,0.0019,0.002,0.0021,0.0067,0.0067,0.0067,0.0068,0.016,0.0163,0.0167,0.0182,0,0,0.0177,0.0179,0,0,0,0,0,0,0,0,-0.0088,-0.0082,-0.0029,-0.0025,-0.0021,0.0034,0.0027,0.0076,0.0067,0.0034,0.0068,0.0068,0.012,0.0127,0.014,0.0186,0.019,0.0178,0.018,0.0181,0.0182,0,0,0,0,0,0,0,-0.0091,-0.0085,-0.0026,-0.0028,-0.0023,-0.0003,0.0004,0.0036,0.0075,0.0037,0.0041,0.0049,0.0123,0.0137,0.0143,0.0191,0.0178,0.0181,0.0183,0.0184,0.0274,0.0275,0,0,0,0,0,0,-0.0103,-0.0088,-0.0029,-0.0024,-0.0054,-0.0002,0.0006,0.0016,0.0074,0.0083,0.0048,0.0051,0.0131,0.0139,0.0147,0.0179,0.0181,0.0184,0.0186,0.0274,0.0274,0.0275,0,0,0,0,0,0,-0.0105,-0.0098,-0.0032,-0.0055,-0.0045,-0.0001,0.001,0.0017,0.0032,0.0083,0.0092,0.0055,0.0131,0.0142,0.0175,0.0182,0.0186,0.0189,0.0274,0.0274,0.0274,0.0236,0,0,0,0,0,0,-0.0107,-0.0099,-0.0099,-0.0055,-0.0044,-0.0016,0.001,0.0019,0.0036,0.004,0.0091,0.0101,0.0133,0.017,0.0179,0.0187,0.0192,0.0273,0.0274,0.0274,0.0237,0.0235,0.0234,0,0,0,0,0,-0.011,-0.0112,-0.0099,-0.0092,-0.0044,-0.0016,-0.0009,0.0024,0.0036,0.0039,0.0077,0.0099,0.018,0.0173,0.0183,0.0193,0.0273,0.0274,0.0274,0.0238,0.0235,0.0234,0,0,0,0,0,0,-0.015,-0.0106,-0.0091,-0.0081,-0.0054,-0.0009,-0.0004,0.0019,0.0051,0.0055,0.0102,0.0114,0.0148,0.0174,0.0164,0.0221,0.0231,0.0234,0.02,0.0198,0.0196,0.0183,0.0195,0,0,0,0,0,-0.0158,-0.0147,-0.0105,-0.0099,-0.0087,-0.0047,-0.0032,-0.001,0.0025,0.0039,0.0076,0.0118,0.0159,0.0179,0.0216,0.0243,0.0286,0.0257,0.0255,0.0254,0.0251,0.0338,0.0345,0.0277,0.0277,0.0277,0,0,-0.0174,-0.0148,-0.0143,-0.0107,-0.0083,-0.0072,-0.0037,-0.002,-0.0006,0.0044,0.007,0.0112,0.0165,0.0199,0.0217,0.0221,0.0292,0.0255,0.0253,0.0251,0.034,0.0347,0.0353,0.0278,0.0277,0.0277,0,0,-0.0201,-0.0175,-0.0176,-0.0156,-0.0123,-0.0095,-0.0093,-0.005,-0.0026,0.0003,0.0048,0.0095,0.0144,0.0192,0.0222,0.0233,0.0281,0.0241,0.0223,0.0308,0.0315,0.0321,0.0367,0.0378,0.024,0.024,0.024,0,-0.0224,-0.0216,-0.0174,-0.017,-0.016,-0.0109,-0.0113,-0.0079,-0.0031,-0.0009,0.0003,0.0103,0.0145,0.0208,0.0209,0.023,0.0272,0.0225,0.0307,0.0314,0.0321,0.0367,0.038,0.0238,0.0238,0.0239,0.0239,0,-0.0247,-0.0245,-0.0245,-0.0221,-0.0203,-0.02,-0.015,-0.0127,-0.0094,-0.0054,0.0009,0.0077,0.0136,0.0161,0.0187,0.0257,0.0266,0.0295,0.031,0.0326,0.0373,0.0386,0.0236,0.0236,0.0237,0.0237,0,0,-0.029,-0.0268,-0.0269,-0.0275,-0.0233,-0.0225,-0.0196,-0.0154,-0.0131,-0.007,-0.0028,0.0052,0.0095,0.0132,0.0185,0.0257,0.0336,0.0287,0.0292,0.0328,0.05,0.0501,0.0517,0.0383,0.0386,0.0388,0.0507,0,-0.0325,-0.0344,-0.0311,-0.0329,-0.0339,-0.0284,-0.0263,-0.0215,-0.0159,-0.0104,-0.0009,0.0047,0.0084,0.0115,0.0195,0.0308,0.0373,0.0299,0.0483,0.0488,0.0485,0.0533,0.0571,0.0681,0.052,0.0522,0.0524,0,-0.0358,-0.0369,-0.0397,-0.0392,-0.0389,-0.0383,-0.0339,-0.0312,-0.0213,-0.0166,-0.0081,-0.0006,0.0105,0.0136,0.0333,0.0285,0.0379,0.0466,0.0473,0.0498,0.0516,0.0644,0.0712,0.0869,0.0545,0.0544,0.0542,0,-0.042,-0.0428,-0.0456,-0.0455,-0.0435,-0.043,-0.0411,-0.0334,-0.0305,-0.02,-0.0157,-0.0019,0.0057,0.0207,0.0367,0.036,0.0584,0.0604,0.069,0.069,0.077,0.0773,0.1011,0.074,0.074,0.074,0.074,0,-0.0474,-0.0496,-0.049,-0.0509,-0.0539,-0.0494,-0.0492,-0.0446,-0.0365,-0.0322,-0.0197,-0.0123,0.0082,0.023,0.037,0.0569,0.0591,0.0697,0.0735,0.0754,0.0754,0.0931,0.0972,0.0744,0.0743,0.0742,0.0742,0,-0.0537,-0.0531,-0.0569,-0.0569,-0.0571,-0.0591,-0.0565,-0.0553,-0.0464,-0.0396,-0.0365,-0.0185,0.0013,0.0207,0.0457,0.0571,0.0851,0.0815,0.0798,0.0831,0.1049,0.1084,0.1314,0.1394,0.0944,0.0945,0.0945,0,-0.057,-0.0597,-0.0628,-0.0658,-0.0661,-0.0678,-0.0686,-0.0618,-0.059,-0.0428,-0.0395,-0.0197,-0.0039,0.0312,0.0551,0.0801,0.0911,0.0962,0.0963,0.108,0.1149,0.1168,0.122,0.1051,0.1053,0.1054,0.1055,0,-0.0637,-0.0644,-0.0677,-0.0746,-0.0773,-0.0797,-0.079,-0.0784,-0.0677,-0.0586,-0.043,-0.0287,0.0058,0.0374,0.0681,0.0833,0.1071,0.0994,0.1158,0.1286,0.1286,0.1373,0.0919,0.1067,0.1066,0.1065,0.1064,0.1064,-0.0679,-0.0724,-0.0769,-0.0831,-0.087,-0.0898,-0.0907,-0.0861,-0.0799,-0.0633,-0.0483,-0.0222,0.0236,0.0691,0.0859,0.1227,0.118,0.1351,0.1391,0.1406,0.1471,0.1008,0.1167,0.1166,0.1166,0.1165,0.1165,0,-0.0734,-0.0781,-0.0851,-0.0917,-0.0973,-0.0967,-0.0963,-0.0927,-0.0845,-0.0648,-0.0464,0.0072,0.0515,0.0926,0.1437,0.1631,0.1675,0.1729,0.1804,0.1844,0.1497,0.1491,0.1677,0.1677,0.1677,0.1677,0.1676,0.1676,-0.0764,-0.0842,-0.0882,-0.099,-0.1032,-0.1071,-0.1064,-0.0968,-0.0823,-0.0485,-0.0165,0.0092,0.0693,0.1521,0.1997,0.2035,0.2203,0.2171,0.2254,0.205,0.2019,0.1989,0.1999,0.2288,0.2289,0.2609,0.2612,0.2615]}],[{"header":{"parameterUnit":"m.s-1","parameterCategory":2,"la1":30.2991,"la2":30.254,"lo1":-89.0895,"lo2":-89.0444,"dy":0.0017,"dx":0.0017,"nx":28,"ny":28,"refTime":"2025-04-03T21:00:00:Z","depth":"2","parameterNumber":2,"parameterNumberName":"U-component_of_CURRENTS"},"data":[0,0,0,0,0,0,0,0,0,0,0,0,0,0,0,0,0,0,0,0,0,0,0,0,0,0,0,0,0,0,0,0,0,0,0,0,0,0,0,0,0,0,0,0,0,0,0,0,0,0,0,0,0,0,0,0,0,0,-0.1793,-0.1794,0,-0.1789,-0.1789,-0.1788,-0.1783,-0.1784,-0.1784,-0.1784,-0.1735,-0.1734,-0.1732,0,0,0,0,0,0,0,0,0,0,0,0,0,-0.1776,-0.1776,-0.1793,-0.1794,-0.1794,-0.1789,-0.1789,-0.1788,-0.1783,-0.1784,-0.1784,-0.1784,-0.1736,-0.1734,-0.1732,0,0,0,0,0,0,0,0,0,0,0,0,0,-0.1777,-0.1776,-0.1793,-0.1792,-0.1792,-0.1789,-0.1789,-0.1788,-0.1783,-0.1784,-0.1784,-0.1784,-0.1736,-0.1734,-0.1732,-0.1715,0,0,-0.1725,-0.1725,0,0,0,0,0,0,0,0,-0.1777,-0.1777,-0.1792,-0.1792,-0.1792,-0.1789,-0.1765,-0.1762,-0.1783,-0.1785,-0.1784,-0.1784,-0.175,-0.1747,-0.1743,-0.1713,-0.1711,-0.1725,-0.1724,-0.1723,-0.1723,0,0,0,0,0,0,0,-0.1777,-0.1777,-0.179,-0.1792,-0.1793,-0.1784,-0.1785,-0.1764,-0.1764,-0.1785,-0.1785,-0.1787,-0.175,-0.1745,-0.1742,-0.171,-0.1725,-0.1723,-0.1722,-0.1721,-0.1709,-0.171,0,0,0,0,0,0,-0.1782,-0.1777,-0.179,-0.179,-0.1787,-0.1785,-0.1785,-0.1788,-0.1765,-0.1763,-0.1787,-0.1787,-0.1749,-0.1745,-0.174,-0.1774,-0.1723,-0.1721,-0.172,-0.1708,-0.1709,-0.171,0,0,0,0,0,0,-0.1782,-0.1784,-0.179,-0.1785,-0.1785,-0.1785,-0.1788,-0.1788,-0.1788,-0.1768,-0.1764,-0.1788,-0.1749,-0.1743,-0.1736,-0.177,-0.172,-0.1718,-0.1707,-0.1708,-0.171,-0.1807,0,0,0,0,0,0,-0.1782,-0.1783,-0.1785,-0.1785,-0.1786,-0.1799,-0.1788,-0.1788,-0.179,-0.179,-0.1768,-0.1763,-0.1749,-0.174,-0.1734,-0.1766,-0.1717,-0.1706,-0.1708,-0.1709,-0.1803,-0.1812,-0.1819,0,0,0,0,0,-0.1781,-0.1782,-0.1785,-0.1786,-0.1789,-0.18,-0.18,-0.1798,-0.179,-0.1797,-0.1784,-0.1764,-0.1747,-0.1738,-0.1732,-0.1765,-0.1705,-0.1707,-0.1709,-0.1799,-0.181,-0.1819,0,0,0,0,0,0,-0.1772,-0.1782,-0.1785,-0.1788,-0.18,-0.18,-0.18,-0.18,-0.1795,-0.179,-0.1769,-0.1765,-0.1775,-0.1749,-0.1739,-0.1765,-0.1725,-0.1726,-0.1796,-0.1805,-0.1814,-0.1834,-0.1715,0,0,0,0,0,-0.1773,-0.1775,-0.1789,-0.1791,-0.1797,-0.1799,-0.1801,-0.1804,-0.1801,-0.1798,-0.1787,-0.1775,-0.1777,-0.1774,-0.1764,-0.1769,-0.1752,-0.1787,-0.1795,-0.1803,-0.1814,-0.1834,-0.1846,-0.1717,-0.1717,-0.1717,0,0,-0.1768,-0.1774,-0.1775,-0.179,-0.1793,-0.1819,-0.18,-0.1807,-0.1835,-0.1792,-0.1813,-0.1798,-0.1783,-0.1802,-0.1804,-0.1786,-0.1825,-0.1805,-0.1812,-0.1819,-0.1838,-0.1851,-0.1862,-0.1719,-0.1718,-0.1718,0,0,-0.1767,-0.1768,-0.1776,-0.1796,-0.1811,-0.1822,-0.1828,-0.1837,-0.1847,-0.1861,-0.185,-0.1861,-0.1842,-0.186,-0.1862,-0.1905,-0.1867,-0.1893,-0.1955,-0.1976,-0.1987,-0.1997,-0.1971,-0.1978,-0.19,-0.19,-0.19,0,-0.1763,-0.1781,-0.178,-0.1805,-0.1829,-0.183,-0.1862,-0.1876,-0.1885,-0.1903,-0.1878,-0.1895,-0.188,-0.1932,-0.195,-0.1929,-0.1911,-0.1922,-0.1989,-0.1998,-0.2007,-0.1978,-0.1985,-0.1905,-0.1904,-0.1904,-0.1903,0,-0.1774,-0.1802,-0.1809,-0.1848,-0.1873,-0.1896,-0.1929,-0.195,-0.1955,-0.1973,-0.201,-0.1997,-0.2009,-0.2013,-0.1993,-0.2054,-0.2011,-0.1998,-0.1969,-0.2026,-0.1991,-0.1996,-0.1912,-0.191,-0.1909,-0.1908,0,0,-0.1736,-0.1805,-0.1809,-0.1849,-0.1901,-0.1923,-0.198,-0.2033,-0.2069,-0.2082,-0.2128,-0.2149,-0.2136,-0.2137,-0.2123,-0.2146,-0.2183,-0.2099,-0.2097,-0.2082,-0.2193,-0.2119,-0.2116,-0.2182,-0.2184,-0.2185,-0.2138,0,-0.1749,-0.1809,-0.1843,-0.1914,-0.1955,-0.1997,-0.2052,-0.2101,-0.2127,-0.2168,-0.2187,-0.2211,-0.2187,-0.2187,-0.2215,-0.2186,-0.2203,-0.2194,-0.2132,-0.2129,-0.2066,-0.2123,-0.1965,-0.1907,-0.2142,-0.2143,-0.2144,0,-0.1748,-0.1798,-0.1865,-0.1966,-0.1986,-0.2027,-0.2113,-0.2163,-0.2231,-0.2249,-0.229,-0.2286,-0.2328,-0.2288,-0.2298,-0.2289,-0.2253,-0.2231,-0.2228,-0.2132,-0.2066,-0.1891,-0.1907,-0.2151,-0.2151,-0.215,-0.215,0,-0.1719,-0.1814,-0.187,-0.1904,-0.201,-0.2049,-0.2102,-0.218,-0.2223,-0.2293,-0.2312,-0.2363,-0.2359,-0.2361,-0.2302,-0.2304,-0.2287,-0.228,-0.2184,-0.2175,-0.2016,-0.1991,-0.2298,-0.2298,-0.2299,-0.2299,-0.2299,0,-0.1723,-0.1769,-0.1859,-0.1892,-0.196,-0.2039,-0.2105,-0.2165,-0.2243,-0.2286,-0.2339,-0.2358,-0.2377,-0.236,-0.2325,-0.2254,-0.2301,-0.2205,-0.2175,-0.204,-0.202,-0.2213,-0.2203,-0.2297,-0.2297,-0.2298,-0.2298,0,-0.1681,-0.1743,-0.1809,-0.1915,-0.1945,-0.1987,-0.2091,-0.2135,-0.2217,-0.2269,-0.2289,-0.2349,-0.233,-0.2319,-0.2295,-0.2255,-0.2212,-0.217,-0.1988,-0.1939,-0.208,-0.2077,-0.2083,-0.2081,-0.2078,-0.2077,-0.2075,0,-0.1666,-0.1693,-0.1793,-0.182,-0.1863,-0.1937,-0.1982,-0.2097,-0.2141,-0.2246,-0.2257,-0.2277,-0.2254,-0.2193,-0.213,-0.2059,-0.2128,-0.1883,-0.1883,-0.2097,-0.2066,-0.2066,-0.2065,-0.1691,-0.1686,-0.1682,-0.1679,0,-0.1625,-0.1648,-0.1694,-0.1752,-0.1797,-0.1861,-0.1935,-0.1967,-0.2089,-0.2128,-0.216,-0.2155,-0.2109,-0.1972,-0.189,-0.1833,-0.1891,-0.1805,-0.208,-0.1779,-0.1726,-0.1696,-0.1709,-0.1646,-0.1649,-0.1652,-0.1654,-0.1655,-0.1563,-0.1574,-0.1619,-0.1665,-0.1716,-0.1754,-0.1762,-0.1837,-0.1878,-0.1898,-0.1987,-0.1913,-0.1901,-0.1693,-0.1611,-0.1548,-0.1677,-0.1615,-0.1627,-0.1642,-0.1615,-0.1562,-0.1443,-0.1445,-0.1447,-0.1449,-0.145,0,-0.1477,-0.1497,-0.1533,-0.1574,-0.1576,-0.1648,-0.1701,-0.1664,-0.1648,-0.1685,-0.1682,-0.1502,-0.1424,-0.1411,-0.1264,-0.1249,-0.1238,-0.1206,-0.1196,-0.1229,-0.1259,-0.1213,-0.0934,-0.0932,-0.0931,-0.093,0,0,-0.143,-0.1419,-0.1441,-0.1412,-0.1438,-0.1395,-0.1394,-0.1345,-0.1333,-0.1241,-0.1205,-0.1319,-0.1351,-0.1135,-0.1097,-0.099,-0.1094,-0.094,-0.1352,-0.1371,-0.1398,-0.1489,-0.1455,0,0,0,0,0]},{"header":{"parameterUnit":"m.s-1","parameterCategory":2,"la1":30.2991,"la2":30.254,"lo1":-89.0895,"lo2":-89.0444,"dy":0.0017,"dx":0.0017,"nx":28,"ny":28,"refTime":"2025-04-03T21:00:00:Z","depth":"2","parameterNumber":3,"parameterNumberName":"V-component_of_CURRENTS"},"data":[0,0,0,0,0,0,0,0,0,0,0,0,0,0,0,0,0,0,0,0,0,0,0,0,0,0,0,0,0,0,0,0,0,0,0,0,0,0,0,0,0,0,0,0,0,0,0,0,0,0,0,0,0,0,0,0,0,0,-0.0111,-0.011,0,-0.0032,-0.0031,-0.003,0.0013,0.0013,0.0013,0.0013,0.0107,0.0109,0.0111,0,0,0,0,0,0,0,0,0,0,0,0,0,-0.0201,-0.02,-0.0111,-0.011,-0.0109,-0.0032,-0.0031,-0.003,0.0013,0.0013,0.0013,0.0013,0.0106,0.0109,0.0111,0,0,0,0,0,0,0,0,0,0,0,0,0,-0.0146,-0.0199,-0.0111,-0.0078,-0.0074,-0.0032,-0.0031,-0.003,0.0013,0.0013,0.0013,0.0013,0.0105,0.0108,0.0112,0.013,0,0,0.0123,0.0124,0,0,0,0,0,0,0,0,-0.0149,-0.0143,-0.0084,-0.008,-0.0076,-0.0019,-0.0029,0.0025,0.0013,-0.002,0.0013,0.0014,0.0066,0.0073,0.0087,0.0135,0.0139,0.0123,0.0125,0.0127,0.0128,0,0,0,0,0,0,0,-0.0153,-0.0146,-0.008,-0.0083,-0.0078,-0.0059,-0.0052,-0.0018,0.0021,-0.0017,-0.0014,-0.0005,0.0068,0.0083,0.0089,0.014,0.0123,0.0126,0.0128,0.013,0.0224,0.0224,0,0,0,0,0,0,-0.0164,-0.0149,-0.0082,-0.0077,-0.0113,-0.0058,-0.0049,-0.0038,0.0021,0.0029,-0.0006,-0.0004,0.0077,0.0085,0.0093,0.0122,0.0127,0.013,0.0132,0.0223,0.0224,0.0224,0,0,0,0,0,0,-0.0166,-0.0159,-0.0085,-0.0112,-0.0101,-0.0057,-0.0044,-0.0036,-0.0021,0.0029,0.0039,0.0002,0.0077,0.0088,0.0123,0.0126,0.0132,0.0135,0.0223,0.0223,0.0224,0.0179,0,0,0,0,0,0,-0.0169,-0.016,-0.0158,-0.0112,-0.01,-0.0067,-0.0044,-0.0035,-0.0016,-0.0012,0.0039,0.0048,0.0078,0.0117,0.0126,0.0131,0.0138,0.0222,0.0223,0.0224,0.018,0.0178,0.0176,0,0,0,0,0,-0.0172,-0.0171,-0.0158,-0.015,-0.0098,-0.0067,-0.0059,-0.0027,-0.0016,-0.0012,0.0025,0.0046,0.0128,0.012,0.0131,0.0137,0.0222,0.0223,0.0224,0.0181,0.0178,0.0176,0,0,0,0,0,0,-0.0212,-0.0165,-0.015,-0.0135,-0.0107,-0.006,-0.0053,-0.0031,0.0002,0.0005,0.005,0.0062,0.0095,0.0122,0.0113,0.0167,0.0179,0.0182,0.0142,0.014,0.0139,0.0123,0.0141,0,0,0,0,0,-0.022,-0.0205,-0.0161,-0.0151,-0.0138,-0.0097,-0.0081,-0.0059,-0.0023,-0.0009,0.0027,0.0068,0.0107,0.0127,0.0163,0.0191,0.0232,0.0203,0.0201,0.0199,0.0194,0.0272,0.0276,0.0227,0.0227,0.0227,0,0,-0.0235,-0.0206,-0.0199,-0.0159,-0.0134,-0.0122,-0.0087,-0.0067,-0.0056,-0.0004,0.002,0.0061,0.0113,0.0146,0.0163,0.0168,0.0233,0.02,0.0198,0.0194,0.0273,0.0278,0.0282,0.0227,0.0227,0.0227,0,0,-0.0259,-0.0231,-0.0228,-0.0207,-0.0171,-0.0143,-0.014,-0.0096,-0.0074,-0.0045,-0.0002,0.0042,0.0093,0.0136,0.0163,0.0174,0.022,0.0183,0.0161,0.0236,0.0241,0.0246,0.0292,0.0301,0.0182,0.0182,0.0182,0,-0.0282,-0.027,-0.0225,-0.0219,-0.021,-0.0158,-0.0162,-0.0128,-0.0079,-0.006,-0.0046,0.0049,0.009,0.0144,0.0146,0.0169,0.0209,0.0164,0.0234,0.0239,0.0245,0.0291,0.0302,0.018,0.018,0.0181,0.0181,0,-0.03,-0.0297,-0.0295,-0.027,-0.0252,-0.0248,-0.02,-0.0178,-0.0145,-0.0108,-0.0052,0.0016,0.007,0.0095,0.0122,0.0181,0.0195,0.0221,0.0236,0.0247,0.0295,0.0307,0.0177,0.0178,0.0179,0.0179,0,0,-0.0342,-0.0316,-0.0317,-0.0325,-0.0283,-0.0275,-0.025,-0.0213,-0.0195,-0.0134,-0.0101,-0.0024,0.0019,0.0053,0.0106,0.017,0.0241,0.0204,0.0209,0.0243,0.039,0.0393,0.0406,0.0283,0.0285,0.0287,0.0404,0,-0.0376,-0.0392,-0.0359,-0.038,-0.039,-0.0338,-0.0322,-0.0278,-0.0226,-0.0178,-0.009,-0.004,0.0003,0.0032,0.0105,0.0213,0.0272,0.0206,0.038,0.0385,0.0382,0.042,0.036,0.0459,0.0416,0.0418,0.0419,0,-0.0406,-0.0417,-0.0445,-0.0446,-0.0443,-0.0439,-0.0405,-0.0381,-0.0293,-0.0249,-0.0172,-0.0101,0.0001,0.0036,0.0222,0.0178,0.0271,0.0354,0.0362,0.0388,0.0411,0.0446,0.0483,0.044,0.0438,0.0437,0.0435,0,-0.0468,-0.0477,-0.0507,-0.0507,-0.0492,-0.049,-0.0474,-0.0405,-0.0383,-0.0288,-0.0251,-0.0124,-0.0052,0.009,0.025,0.0244,0.0454,0.0474,0.056,0.056,0.0555,0.0552,0.0599,0.0599,0.0598,0.0598,0.0598,0,-0.0522,-0.0546,-0.0541,-0.056,-0.0595,-0.0553,-0.0559,-0.0518,-0.0447,-0.0412,-0.0294,-0.0228,-0.0031,0.0109,0.0248,0.044,0.0457,0.0563,0.06,0.0536,0.0529,0.0548,0.0541,0.0602,0.0601,0.0601,0.06,0,-0.0584,-0.0578,-0.0618,-0.0622,-0.0626,-0.0649,-0.063,-0.0624,-0.0543,-0.0487,-0.0459,-0.0291,-0.01,0.0088,0.0327,0.0437,0.0617,0.0672,0.0566,0.0589,0.067,0.0659,0.0793,0.0795,0.0796,0.0797,0.0797,0,-0.0615,-0.0643,-0.0677,-0.0708,-0.0713,-0.0734,-0.0746,-0.0686,-0.0664,-0.0519,-0.0493,-0.0304,-0.0156,0.0182,0.0399,0.064,0.0652,0.0714,0.0699,0.0672,0.0695,0.0682,0.067,0.0672,0.0671,0.0671,0.0671,0,-0.0683,-0.0689,-0.0724,-0.0794,-0.0824,-0.0852,-0.0852,-0.085,-0.0755,-0.0674,-0.0531,-0.0397,-0.0079,0.0173,0.0467,0.06,0.0673,0.0717,0.0749,0.0622,0.0565,0.0585,0.0576,0.0668,0.0669,0.0669,0.0669,0.0669,-0.0725,-0.0769,-0.0815,-0.0878,-0.092,-0.0952,-0.0965,-0.0929,-0.0877,-0.0731,-0.0591,-0.0367,-0.0119,0.0291,0.0499,0.0684,0.0703,0.0745,0.0743,0.0742,0.0698,0.0645,0.0754,0.0754,0.0755,0.0756,0.0756,0,-0.078,-0.0826,-0.0896,-0.0964,-0.1022,-0.1018,-0.1022,-0.0994,-0.0923,-0.0762,-0.0595,-0.032,-0.0028,0.0233,0.0522,0.0707,0.0691,0.0728,0.0668,0.0669,0.067,0.062,0.0657,0.0658,0.0658,0.0658,0,0,-0.0811,-0.0888,-0.0927,-0.1037,-0.108,-0.1122,-0.112,-0.1039,-0.0923,-0.0757,-0.0589,-0.0355,-0.0031,0.015,0.0376,0.0524,0.0548,0.0533,0.059,0.0492,0.0492,0.0657,0.0579,0,0,0,0,0]}],[{"header":{"parameterUnit":"m.s-1","parameterCategory":2,"la1":30.2991,"la2":30.254,"lo1":-89.0895,"lo2":-89.0444,"dy":0.0017,"dx":0.0017,"nx":28,"ny":28,"refTime":"2025-04-03T21:00:00:Z","depth":"4","parameterNumber":2,"parameterNumberName":"U-component_of_CURRENTS"},"data":[0,0,0,0,0,0,0,0,0,0,0,0,0,0,0,0,0,0,0,0,0,0,0,0,0,0,0,0,0,0,0,0,0,0,0,0,0,0,0,0,0,0,0,0,0,0,0,0,0,0,0,0,0,0,0,0,0,0,-0.1223,-0.1224,0,-0.1268,-0.1269,-0.1269,-0.1303,-0.1303,-0.1304,-0.1304,-0.1319,-0.1318,-0.1318,0,0,0,0,0,0,0,0,0,0,0,0,0,-0.1113,-0.1115,-0.1223,-0.1224,-0.1225,-0.1268,-0.1269,-0.1269,-0.1303,-0.1303,-0.1304,-0.1305,-0.1319,-0.1318,-0.1318,0,0,0,0,0,0,0,0,0,0,0,0,0,-0.1158,-0.1116,-0.1223,-0.1249,-0.1252,-0.1268,-0.1269,-0.1269,-0.1303,-0.1303,-0.1304,-0.1305,-0.1319,-0.1318,-0.1318,-0.1302,0,0,-0.1318,-0.1318,0,0,0,0,0,0,0,0,-0.1155,-0.1161,-0.1244,-0.1247,-0.125,-0.1283,-0.1235,-0.1279,-0.1302,-0.1281,-0.1304,-0.1305,-0.1305,-0.1306,-0.131,-0.1302,-0.1303,-0.1318,-0.1318,-0.1318,-0.1318,0,0,0,0,0,0,0,-0.1152,-0.1159,-0.1239,-0.1245,-0.1249,-0.1239,-0.1247,-0.1243,-0.1285,-0.1283,-0.1286,-0.1294,-0.1306,-0.131,-0.131,-0.1303,-0.1318,-0.1318,-0.1318,-0.1318,-0.1358,-0.1359,0,0,0,0,0,0,-0.1153,-0.1157,-0.1237,-0.124,-0.1206,-0.1241,-0.1249,-0.127,-0.1286,-0.1291,-0.1294,-0.1296,-0.131,-0.131,-0.1311,-0.1372,-0.1318,-0.1318,-0.1317,-0.1357,-0.1358,-0.136,0,0,0,0,0,0,-0.1151,-0.1161,-0.1236,-0.12,-0.121,-0.1243,-0.1265,-0.127,-0.1299,-0.1295,-0.1299,-0.132,-0.131,-0.1311,-0.1334,-0.137,-0.1317,-0.1317,-0.1356,-0.1357,-0.1359,-0.1444,0,0,0,0,0,0,-0.1148,-0.116,-0.1184,-0.1201,-0.1212,-0.1267,-0.1265,-0.1271,-0.1302,-0.1306,-0.1318,-0.1319,-0.1311,-0.1335,-0.1334,-0.1369,-0.1317,-0.1354,-0.1356,-0.1358,-0.144,-0.1448,-0.1456,0,0,0,0,0,-0.1144,-0.1173,-0.1185,-0.1195,-0.1242,-0.1268,-0.1273,-0.1296,-0.1303,-0.1323,-0.1333,-0.132,-0.1348,-0.1336,-0.1335,-0.137,-0.1353,-0.1356,-0.1358,-0.1436,-0.1447,-0.1456,0,0,0,0,0,0,-0.1134,-0.118,-0.1194,-0.1235,-0.126,-0.1275,-0.1299,-0.1309,-0.1332,-0.134,-0.1333,-0.1335,-0.1369,-0.1354,-0.134,-0.1387,-0.1349,-0.1352,-0.1409,-0.1418,-0.1426,-0.1427,-0.1317,0,0,0,0,0,-0.1144,-0.1184,-0.1213,-0.1248,-0.1264,-0.1284,-0.1301,-0.1316,-0.1333,-0.1346,-0.1354,-0.1361,-0.1374,-0.1385,-0.1387,-0.1411,-0.1387,-0.1433,-0.1441,-0.1448,-0.1447,-0.1445,-0.1452,-0.1368,-0.1368,-0.1368,0,0,-0.115,-0.1181,-0.1204,-0.125,-0.1271,-0.1301,-0.1297,-0.1332,-0.1361,-0.1341,-0.1387,-0.1389,-0.1385,-0.1418,-0.1432,-0.1414,-0.146,-0.1451,-0.1458,-0.1453,-0.1448,-0.1456,-0.1463,-0.137,-0.137,-0.1369,0,0,-0.1172,-0.1211,-0.1247,-0.1273,-0.1314,-0.1327,-0.1342,-0.1371,-0.1395,-0.1428,-0.1428,-0.1455,-0.1466,-0.1481,-0.1485,-0.1537,-0.1501,-0.1538,-0.1584,-0.1583,-0.159,-0.1595,-0.158,-0.1583,-0.1545,-0.1545,-0.1546,0,-0.1175,-0.1228,-0.1259,-0.1295,-0.1322,-0.1343,-0.1376,-0.1402,-0.1436,-0.1458,-0.1455,-0.1494,-0.1497,-0.1541,-0.1564,-0.1558,-0.1539,-0.1551,-0.1594,-0.1599,-0.1603,-0.1585,-0.1588,-0.155,-0.1549,-0.1549,-0.1548,0,-0.1217,-0.1264,-0.1287,-0.1345,-0.1375,-0.1409,-0.1445,-0.148,-0.1504,-0.1524,-0.1574,-0.1581,-0.1603,-0.1616,-0.1607,-0.165,-0.1621,-0.1603,-0.157,-0.1617,-0.1595,-0.1597,-0.1556,-0.1555,-0.1553,-0.1552,0,0,-0.1203,-0.1298,-0.1308,-0.1342,-0.1405,-0.1428,-0.1488,-0.1539,-0.1573,-0.1612,-0.165,-0.1694,-0.1696,-0.1701,-0.1702,-0.1708,-0.1733,-0.1674,-0.1672,-0.166,-0.1716,-0.1608,-0.1599,-0.172,-0.1721,-0.1721,-0.169,0,-0.1224,-0.1299,-0.1344,-0.1409,-0.1445,-0.149,-0.1539,-0.1589,-0.1624,-0.1664,-0.1695,-0.1726,-0.173,-0.1741,-0.1756,-0.173,-0.1739,-0.1741,-0.1671,-0.1668,-0.1568,-0.1598,-0.1723,-0.1691,-0.1691,-0.1691,-0.1691,0,-0.1242,-0.1293,-0.1364,-0.1443,-0.1463,-0.1506,-0.1579,-0.1625,-0.1689,-0.1715,-0.176,-0.1769,-0.1808,-0.1789,-0.1791,-0.1789,-0.1765,-0.1743,-0.174,-0.1608,-0.1562,-0.1632,-0.1693,-0.1693,-0.1693,-0.1693,-0.1693,0,-0.1208,-0.1302,-0.1361,-0.139,-0.1481,-0.1524,-0.1572,-0.1642,-0.1677,-0.1746,-0.1761,-0.181,-0.1817,-0.1812,-0.1784,-0.1786,-0.1756,-0.1748,-0.1633,-0.1624,-0.1694,-0.1688,-0.1747,-0.1747,-0.1747,-0.1747,-0.1747,0,-0.1202,-0.1249,-0.1353,-0.1383,-0.144,-0.1514,-0.1572,-0.1626,-0.1692,-0.1716,-0.1783,-0.1789,-0.182,-0.1808,-0.1788,-0.1705,-0.1762,-0.1638,-0.1609,-0.173,-0.1729,-0.1695,-0.1689,-0.1746,-0.1746,-0.1746,-0.1746,0,-0.1151,-0.1228,-0.129,-0.1394,-0.1426,-0.1465,-0.1559,-0.1587,-0.1667,-0.1695,-0.1716,-0.177,-0.1752,-0.1763,-0.1737,-0.1684,-0.1633,-0.1593,-0.1716,-0.1696,-0.1504,-0.1503,-0.1457,-0.1453,-0.145,-0.1447,-0.1445,0,-0.1132,-0.1165,-0.1274,-0.1301,-0.1351,-0.1421,-0.1457,-0.1559,-0.1579,-0.1662,-0.1651,-0.1677,-0.1696,-0.1572,-0.1605,-0.1558,-0.1543,-0.1507,-0.1517,-0.1497,-0.1475,-0.1479,-0.1483,-0.1439,-0.1438,-0.1437,-0.1436,0,-0.1077,-0.1127,-0.1171,-0.1226,-0.1273,-0.1319,-0.1379,-0.1381,-0.1479,-0.1567,-0.1541,-0.1531,-0.1505,-0.149,-0.1459,-0.1432,-0.1526,-0.1471,-0.1479,-0.1487,-0.1474,-0.1457,-0.1464,-0.1424,-0.1426,-0.1427,-0.1428,0,-0.1022,-0.1032,-0.109,-0.1124,-0.1177,-0.1185,-0.124,-0.1259,-0.1297,-0.1396,-0.1382,-0.1421,-0.1482,-0.1422,-0.1397,-0.1358,-0.1341,-0.1297,-0.1313,-0.1327,-0.1299,-0.1265,-0.1123,0,0,0,0,0,-0.0955,-0.0954,-0.0979,-0.1006,-0.1053,-0.1081,-0.1164,-0.1221,-0.1315,-0.1257,-0.1319,-0.1296,-0.1267,-0.1294,-0.1223,-0.1334,-0.1342,-0.1247,-0.13,-0.1358,-0.1372,-0.1352,0,0,0,0,0,0,-0.0906,-0.0932,-0.0938,-0.0892,-0.0885,-0.0922,-0.0968,-0.1041,-0.1023,-0.1128,-0.1118,-0.1205,-0.1194,-0.1274,-0.1188,-0.1196,-0.12,-0.1286,-0.1282,-0.135,-0.1363,-0.1374,-0.1358,0,0,0,0,0]},{"header":{"parameterUnit":"m.s-1","parameterCategory":2,"la1":30.2991,"la2":30.254,"lo1":-89.0895,"lo2":-89.0444,"dy":0.0017,"dx":0.0017,"nx":28,"ny":28,"refTime":"2025-04-03T21:00:00:Z","depth":"4","parameterNumber":3,"parameterNumberName":"V-component_of_CURRENTS"},"data":[0,0,0,0,0,0,0,0,0,0,0,0,0,0,0,0,0,0,0,0,0,0,0,0,0,0,0,0,0,0,0,0,0,0,0,0,0,0,0,0,0,0,0,0,0,0,0,0,0,0,0,0,0,0,0,0,0,0,-0.011,-0.0109,0,-0.0037,-0.0037,-0.0036,-0.0011,-0.0012,-0.0012,-0.0012,0.0068,0.007,0.0073,0,0,0,0,0,0,0,0,0,0,0,0,0,-0.02,-0.0199,-0.011,-0.0109,-0.0108,-0.0038,-0.0037,-0.0036,-0.0011,-0.0012,-0.0012,-0.0012,0.0067,0.007,0.0073,0,0,0,0,0,0,0,0,0,0,0,0,0,-0.0148,-0.0198,-0.011,-0.0088,-0.0085,-0.0038,-0.0036,-0.0035,-0.0011,-0.0012,-0.0012,-0.0012,0.0066,0.007,0.0073,0.0105,0,0,0.0085,0.0086,0,0,0,0,0,0,0,0,-0.0151,-0.0145,-0.0092,-0.0089,-0.0086,-0.0034,-0.0039,0.0012,-0.0011,-0.0039,-0.0012,-0.0013,0.0035,0.0041,0.0056,0.0108,0.0112,0.0085,0.0087,0.0089,0.009,0,0,0,0,0,0,0,-0.0155,-0.0147,-0.0081,-0.0091,-0.0087,-0.0071,-0.0065,-0.0029,-0.0,-0.0037,-0.0035,-0.0026,0.0037,0.0052,0.0058,0.0113,0.0085,0.0088,0.009,0.0092,0.0192,0.0192,0,0,0,0,0,0,-0.0164,-0.0151,-0.0084,-0.0079,-0.012,-0.007,-0.0062,-0.005,-0.0001,0.0006,-0.0026,-0.0026,0.0046,0.0054,0.0061,0.008,0.0089,0.0092,0.0094,0.0191,0.0192,0.0192,0,0,0,0,0,0,-0.0166,-0.0159,-0.0087,-0.0114,-0.0103,-0.0068,-0.0054,-0.0048,-0.0036,0.0007,0.0014,-0.002,0.0046,0.0056,0.009,0.0084,0.0094,0.0097,0.0191,0.0192,0.0192,0.0133,0,0,0,0,0,0,-0.0169,-0.016,-0.0157,-0.0114,-0.0102,-0.0064,-0.0054,-0.0047,-0.0029,-0.0028,0.0015,0.0022,0.0047,0.0085,0.0094,0.0089,0.01,0.019,0.0191,0.0192,0.0134,0.0131,0.0129,0,0,0,0,0,-0.0172,-0.0165,-0.0157,-0.0149,-0.0099,-0.0064,-0.0057,-0.0033,-0.0029,-0.0023,0.0006,0.0021,0.0097,0.0088,0.0099,0.0095,0.019,0.0191,0.0192,0.0135,0.0132,0.0129,0,0,0,0,0,0,-0.0205,-0.016,-0.0151,-0.0132,-0.0104,-0.006,-0.0051,-0.0035,-0.0006,-0.0006,0.003,0.004,0.0067,0.0096,0.0085,0.0129,0.0145,0.0148,0.0098,0.0096,0.0093,0.007,0.0103,0,0,0,0,0,-0.0211,-0.0193,-0.0152,-0.0139,-0.0126,-0.009,-0.0074,-0.0058,-0.0025,-0.0013,0.0017,0.0051,0.0082,0.0099,0.0132,0.0159,0.0181,0.0165,0.0163,0.016,0.015,0.0175,0.0173,0.0196,0.0196,0.0196,0,0,-0.0222,-0.0194,-0.0187,-0.0145,-0.0122,-0.0112,-0.0082,-0.0059,-0.0056,-0.0008,0.0007,0.0044,0.0088,0.0114,0.0128,0.0135,0.0168,0.0161,0.0159,0.015,0.0176,0.0174,0.0171,0.0197,0.0197,0.0197,0,0,-0.0236,-0.021,-0.0202,-0.0183,-0.0148,-0.0126,-0.0122,-0.0081,-0.0067,-0.0041,-0.001,0.0022,0.0073,0.0098,0.0119,0.0126,0.0154,0.014,0.0107,0.0132,0.0129,0.0127,0.0159,0.016,0.0138,0.0138,0.0138,0,-0.0256,-0.0241,-0.0197,-0.0188,-0.0184,-0.0138,-0.0143,-0.0117,-0.0072,-0.0065,-0.0046,0.0024,0.0062,0.0087,0.0089,0.0117,0.0139,0.011,0.0125,0.0124,0.0123,0.0156,0.0158,0.0136,0.0136,0.0136,0.0136,0,-0.0262,-0.026,-0.0254,-0.0233,-0.0219,-0.0214,-0.0179,-0.0163,-0.014,-0.0116,-0.0083,-0.0024,0.0013,0.0035,0.0065,0.008,0.01,0.0116,0.0125,0.0117,0.0152,0.0156,0.0132,0.0133,0.0133,0.0134,0,0,-0.0291,-0.0267,-0.0269,-0.028,-0.0248,-0.0241,-0.0233,-0.0214,-0.0215,-0.0164,-0.0161,-0.0097,-0.0062,-0.0036,0.0011,0.0037,0.0057,0.0069,0.0072,0.0085,0.0115,0.012,0.0125,0.0072,0.0072,0.0072,0.0144,0,-0.0318,-0.0329,-0.0304,-0.033,-0.0339,-0.0307,-0.0306,-0.0283,-0.0251,-0.0231,-0.017,-0.0142,-0.009,-0.007,-0.0036,0.0036,0.0062,0.0036,0.0134,0.0137,0.013,0.0128,0.0073,0.0147,0.0147,0.0148,0.0148,0,-0.0336,-0.0346,-0.0376,-0.0393,-0.0394,-0.0401,-0.04,-0.0391,-0.0347,-0.0319,-0.0276,-0.0222,-0.0167,-0.0125,-0.0019,-0.0038,0.0028,0.0084,0.0088,0.0112,0.0148,0.0158,0.0155,0.0154,0.0154,0.0154,0.0153,0,-0.0385,-0.0401,-0.0434,-0.0438,-0.0441,-0.0454,-0.0454,-0.0423,-0.0419,-0.0374,-0.0358,-0.0285,-0.0239,-0.0156,-0.0023,-0.0027,0.0095,0.0104,0.0171,0.0173,0.0172,0.0173,0.0163,0.0163,0.0163,0.0163,0.0163,0,-0.0423,-0.0453,-0.0463,-0.0483,-0.0531,-0.0509,-0.0541,-0.0521,-0.0493,-0.0486,-0.0408,-0.0373,-0.0245,-0.015,-0.0046,0.0082,0.0081,0.0161,0.0187,0.0148,0.0146,0.0175,0.0175,0.0166,0.0165,0.0165,0.0164,0,-0.0464,-0.0469,-0.0515,-0.054,-0.0554,-0.0586,-0.0604,-0.0615,-0.0576,-0.0562,-0.0549,-0.0439,-0.031,-0.0171,-0.0018,0.0056,0.0173,0.0219,0.0176,0.02,0.0237,0.0234,0.0278,0.0278,0.0279,0.0279,0.028,0,-0.0482,-0.0508,-0.0564,-0.0601,-0.0616,-0.0658,-0.0683,-0.0663,-0.0662,-0.0591,-0.0581,-0.046,-0.037,-0.0143,-0.0005,0.0184,0.0212,0.0261,0.0234,0.0225,0.0247,0.0243,0.0239,0.0281,0.0281,0.0281,0.0281,0,-0.0524,-0.0544,-0.0582,-0.0656,-0.0701,-0.0747,-0.0771,-0.0775,-0.0732,-0.0703,-0.0593,-0.0466,-0.0317,-0.0142,0.0015,0.0149,0.0217,0.0267,0.0266,0.0241,0.023,0.025,0.0245,0.0283,0.0283,0.0283,0.0283,0,-0.0553,-0.0592,-0.0642,-0.0704,-0.0768,-0.0807,-0.0818,-0.0793,-0.0778,-0.0682,-0.0645,-0.0469,-0.0363,-0.0158,-0.0014,0.0119,0.0138,0.0159,0.0164,0.0163,0.0109,0.0076,0.0099,0,0,0,0,0,-0.0577,-0.0619,-0.0685,-0.0748,-0.081,-0.0839,-0.0861,-0.0853,-0.081,-0.0738,-0.0684,-0.0535,-0.0304,-0.02,-0.0067,-0.0027,0.0142,0.0129,0.0164,0.0294,0.0292,0.0248,0,0,0,0,0,0,-0.0594,-0.0657,-0.0687,-0.0768,-0.0813,-0.087,-0.0884,-0.0855,-0.08,-0.0735,-0.0606,-0.0521,-0.0294,-0.0375,-0.0068,-0.0027,0.0007,0.0245,0.0247,0.0296,0.0294,0.0292,0.0245,0,0,0,0,0]}]]